Time,TemperatureF,DewpointF,PressureIn,WindDirection,WindDirectionDegrees,WindSpeedMPH,WindSpeedGustMPH,Humidity,HourlyPrecipIn,Conditions,Clouds,dailyrainin,SoftwareType,DateUTC
2013-03-13 00:00:00,16.3,13.4,30.06,SE,130,0.0,2.0,88,0.00,,---,0.00,VWS V14.00,2013-03-13 05:00:00,
2013-03-13 00:05:00,16.2,13.3,30.07,East,92,0.0,1.0,88,0.00,,---,0.00,VWS V14.00,2013-03-13 05:05:00,
2013-03-13 00:10:00,16.1,12.9,30.07,SSW,213,0.0,3.0,87,0.00,,---,0.00,VWS V14.00,2013-03-13 05:10:00,
2013-03-13 00:15:00,15.9,12.7,30.07,WNW,302,0.0,3.0,87,0.00,,---,0.00,VWS V14.00,2013-03-13 05:15:00,
2013-03-13 00:20:00,15.8,12.6,30.07,WSW,248,1.0,4.0,87,0.00,,---,0.00,VWS V14.00,2013-03-13 05:20:00,
2013-03-13 00:25:00,15.7,12.5,30.07,ESE,115,0.0,4.0,87,0.00,,---,0.00,VWS V14.00,2013-03-13 05:25:00,
2013-03-13 00:30:00,15.6,12.7,30.07,East,101,0.0,4.0,88,0.00,,---,0.00,VWS V14.00,2013-03-13 05:30:00,
2013-03-13 00:35:00,15.5,12.3,30.07,East,101,0.0,0.0,87,0.00,,---,0.00,VWS V14.00,2013-03-13 05:35:00,
2013-03-13 00:40:00,15.4,12.2,30.07,East,101,0.0,0.0,87,0.00,,---,0.00,VWS V14.00,2013-03-13 05:40:00,
2013-03-13 00:45:00,15.3,12.1,30.07,SSE,149,0.0,1.0,87,0.00,,---,0.00,VWS V14.00,2013-03-13 05:45:00,
2013-03-13 00:50:00,15.1,11.9,30.07,SSE,149,0.0,0.0,87,0.00,,---,0.00,VWS V14.00,2013-03-13 05:50:00,
2013-03-13 00:55:00,14.9,11.7,30.07,ESE,108,0.0,1.0,87,0.00,,---,0.00,VWS V14.00,2013-03-13 05:55:00,
2013-03-13 01:00:00,14.8,11.6,30.07,NNE,32,0.0,1.0,87,0.00,,---,0.00,VWS V14.00,2013-03-13 06:00:00,
2013-03-13 01:05:00,14.7,11.5,30.07,NNE,32,0.0,0.0,87,0.00,,---,0.00,VWS V14.00,2013-03-13 06:05:00,
2013-03-13 01:10:00,14.6,11.4,30.07,NNE,32,0.0,0.0,87,0.00,,---,0.00,VWS V14.00,2013-03-13 06:10:00,
2013-03-13 01:15:00,14.5,11.3,30.07,NNE,32,0.0,0.0,87,0.00,,---,0.00,VWS V14.00,2013-03-13 06:15:00,
2013-03-13 01:20:00,14.3,11.1,30.07,NNE,32,0.0,0.0,87,0.00,,---,0.00,VWS V14.00,2013-03-13 06:20:00,
2013-03-13 01:25:00,14.3,11.1,30.07,NNE,32,0.0,0.0,87,0.00,,---,0.00,VWS V14.00,2013-03-13 06:25:00,
2013-03-13 01:30:00,14.2,11.1,30.07,NNE,32,0.0,0.0,87,0.00,,---,0.00,VWS V14.00,2013-03-13 06:30:00,
2013-03-13 01:35:00,14.0,10.9,30.07,NNE,32,0.0,0.0,87,0.00,,---,0.00,VWS V14.00,2013-03-13 06:35:00,
2013-03-13 01:40:00,13.9,10.8,30.08,NNE,32,0.0,0.0,87,0.00,,---,0.00,VWS V14.00,2013-03-13 06:40:00,
2013-03-13 01:45:00,13.7,10.6,30.08,NNE,32,0.0,0.0,87,0.00,,---,0.00,VWS V14.00,2013-03-13 06:45:00,
2013-03-13 01:50:00,13.5,10.4,30.08,NNE,32,0.0,0.0,87,0.00,,---,0.00,VWS V14.00,2013-03-13 06:50:00,
2013-03-13 01:55:00,13.3,10.2,30.08,NNE,32,0.0,0.0,87,0.00,,---,0.00,VWS V14.00,2013-03-13 06:55:00,
2013-03-13 02:00:00,13.1,10.0,30.08,NNE,32,0.0,0.0,87,0.00,,---,0.00,VWS V14.00,2013-03-13 07:00:00,
2013-03-13 02:05:00,12.9,9.8,30.09,NNE,32,0.0,0.0,87,0.00,,---,0.00,VWS V14.00,2013-03-13 07:05:00,
2013-03-13 02:10:00,12.7,9.8,30.09,NNE,32,0.0,0.0,88,0.00,,---,0.00,VWS V14.00,2013-03-13 07:10:00,
2013-03-13 02:15:00,12.6,9.7,30.09,NNE,32,0.0,0.0,88,0.00,,---,0.00,VWS V14.00,2013-03-13 07:15:00,
2013-03-13 02:20:00,12.5,9.9,30.09,NNE,32,0.0,0.0,89,0.00,,---,0.00,VWS V14.00,2013-03-13 07:20:00,
2013-03-13 02:25:00,12.4,9.8,30.09,NNE,32,0.0,0.0,89,0.00,,---,0.00,VWS V14.00,2013-03-13 07:25:00,
2013-03-13 02:30:00,12.3,9.4,30.09,NNE,32,0.0,0.0,88,0.00,,---,0.00,VWS V14.00,2013-03-13 07:30:00,
2013-03-13 02:35:00,12.3,9.4,30.10,NNE,32,0.0,0.0,88,0.00,,---,0.00,VWS V14.00,2013-03-13 07:35:00,
2013-03-13 02:40:00,12.3,9.4,30.10,NNE,32,0.0,0.0,88,0.00,,---,0.00,VWS V14.00,2013-03-13 07:40:00,
2013-03-13 02:45:00,12.5,9.6,30.09,WNW,286,0.0,1.0,88,0.00,,---,0.00,VWS V14.00,2013-03-13 07:45:00,
2013-03-13 02:50:00,12.6,9.5,30.10,WNW,286,0.0,0.0,87,0.00,,---,0.00,VWS V14.00,2013-03-13 07:50:00,
2013-03-13 02:55:00,12.6,9.5,30.10,WNW,286,0.0,0.0,87,0.00,,---,0.00,VWS V14.00,2013-03-13 07:55:00,
2013-03-13 03:00:00,12.7,9.6,30.10,SSW,213,0.0,0.0,87,0.00,,---,0.00,VWS V14.00,2013-03-13 08:00:00,
2013-03-13 03:05:00,12.7,9.6,30.10,SSW,213,0.0,0.0,87,0.00,,---,0.00,VWS V14.00,2013-03-13 08:05:00,
2013-03-13 03:10:00,12.7,9.3,30.10,SW,236,0.0,2.0,86,0.00,,---,0.00,VWS V14.00,2013-03-13 08:10:00,
2013-03-13 03:15:00,12.7,9.3,30.10,SW,236,0.0,2.0,86,0.00,,---,0.00,VWS V14.00,2013-03-13 08:15:00,
2013-03-13 03:20:00,12.8,9.4,30.10,West,265,0.0,0.0,86,0.00,,---,0.00,VWS V14.00,2013-03-13 08:20:00,
2013-03-13 03:25:00,12.9,9.5,30.10,West,278,0.0,3.0,86,0.00,,---,0.00,VWS V14.00,2013-03-13 08:25:00,
2013-03-13 03:30:00,12.9,9.5,30.11,SW,215,0.0,3.0,86,0.00,,---,0.00,VWS V14.00,2013-03-13 08:30:00,
2013-03-13 03:35:00,13.0,9.6,30.11,WSW,244,0.0,1.0,86,0.00,,---,0.00,VWS V14.00,2013-03-13 08:35:00,
2013-03-13 03:40:00,13.0,9.6,30.11,WSW,244,0.0,1.0,86,0.00,,---,0.00,VWS V14.00,2013-03-13 08:40:00,
2013-03-13 03:45:00,13.0,9.4,30.11,WSW,237,0.0,2.0,85,0.00,,---,0.00,VWS V14.00,2013-03-13 08:45:00,
2013-03-13 03:50:00,13.1,9.4,30.11,WSW,237,0.0,1.0,85,0.00,,---,0.00,VWS V14.00,2013-03-13 08:50:00,
2013-03-13 03:55:00,13.1,9.4,30.11,WSW,237,0.0,1.0,85,0.00,,---,0.00,VWS V14.00,2013-03-13 08:55:00,
2013-03-13 04:00:00,13.2,9.6,30.11,WSW,237,0.0,1.0,85,0.00,,---,0.00,VWS V14.00,2013-03-13 09:00:00,
2013-03-13 04:05:00,13.2,9.6,30.11,WSW,237,0.0,1.0,85,0.00,,---,0.00,VWS V14.00,2013-03-13 09:05:00,
2013-03-13 04:10:00,13.3,9.6,30.11,SW,229,4.0,4.0,85,0.00,,---,0.00,VWS V14.00,2013-03-13 09:10:00,
2013-03-13 04:15:00,13.4,9.5,30.12,West,269,0.0,4.0,84,0.00,,---,0.00,VWS V14.00,2013-03-13 09:15:00,
2013-03-13 04:20:00,13.4,9.5,30.12,West,275,0.0,0.0,84,0.00,,---,0.00,VWS V14.00,2013-03-13 09:20:00,
2013-03-13 04:25:00,13.4,9.5,30.12,West,275,0.0,0.0,84,0.00,,---,0.00,VWS V14.00,2013-03-13 09:25:00,
2013-03-13 04:30:00,13.3,9.4,30.12,West,275,0.0,0.0,84,0.00,,---,0.00,VWS V14.00,2013-03-13 09:30:00,
2013-03-13 04:35:00,13.2,9.3,30.12,West,275,0.0,0.0,84,0.00,,---,0.00,VWS V14.00,2013-03-13 09:35:00,
2013-03-13 04:40:00,13.1,9.2,30.12,West,275,0.0,0.0,84,0.00,,---,0.00,VWS V14.00,2013-03-13 09:40:00,
2013-03-13 04:45:00,13.0,9.1,30.13,West,275,0.0,1.0,84,0.00,,---,0.00,VWS V14.00,2013-03-13 09:45:00,
2013-03-13 04:50:00,12.8,8.9,30.13,West,275,0.0,0.0,84,0.00,,---,0.00,VWS V14.00,2013-03-13 09:50:00,
2013-03-13 04:55:00,12.7,8.8,30.13,West,275,0.0,0.0,84,0.00,,---,0.00,VWS V14.00,2013-03-13 09:55:00,
2013-03-13 05:00:00,12.6,8.7,30.14,West,270,0.0,1.0,84,0.00,,---,0.00,VWS V14.00,2013-03-13 10:00:00,
2013-03-13 05:05:00,12.5,8.9,30.14,West,270,0.0,0.0,85,0.00,,---,0.00,VWS V14.00,2013-03-13 10:05:00,
2013-03-13 05:10:00,12.5,8.9,30.14,West,270,0.0,1.0,85,0.00,,---,0.00,VWS V14.00,2013-03-13 10:10:00,
2013-03-13 05:15:00,12.4,8.8,30.14,West,270,0.0,1.0,85,0.00,,---,0.00,VWS V14.00,2013-03-13 10:15:00,
2013-03-13 05:20:00,12.4,8.8,30.14,West,270,0.0,0.0,85,0.00,,---,0.00,VWS V14.00,2013-03-13 10:20:00,
2013-03-13 05:25:00,12.3,8.7,30.15,West,270,0.0,0.0,85,0.00,,---,0.00,VWS V14.00,2013-03-13 10:25:00,
2013-03-13 05:30:00,12.3,8.7,30.15,West,270,0.0,0.0,85,0.00,,---,0.00,VWS V14.00,2013-03-13 10:30:00,
2013-03-13 05:35:00,12.3,8.7,30.15,West,270,0.0,0.0,85,0.00,,---,0.00,VWS V14.00,2013-03-13 10:35:00,
2013-03-13 05:40:00,12.3,8.7,30.15,West,270,0.0,0.0,85,0.00,,---,0.00,VWS V14.00,2013-03-13 10:40:00,
2013-03-13 05:45:00,12.3,8.7,30.16,West,261,0.0,1.0,85,0.00,,---,0.00,VWS V14.00,2013-03-13 10:45:00,
2013-03-13 05:50:00,12.4,8.8,30.16,West,261,0.0,0.0,85,0.00,,---,0.00,VWS V14.00,2013-03-13 10:50:00,
2013-03-13 05:55:00,12.4,8.8,30.16,West,261,0.0,0.0,85,0.00,,---,0.00,VWS V14.00,2013-03-13 10:55:00,
2013-03-13 06:00:00,12.3,8.7,30.16,West,261,0.0,0.0,85,0.00,,---,0.00,VWS V14.00,2013-03-13 11:00:00,
2013-03-13 06:05:00,12.3,8.7,30.16,West,261,0.0,0.0,85,0.00,,---,0.00,VWS V14.00,2013-03-13 11:05:00,
2013-03-13 06:10:00,12.4,8.8,30.17,West,261,0.0,0.0,85,0.00,,---,0.00,VWS V14.00,2013-03-13 11:10:00,
2013-03-13 06:15:00,12.4,8.8,30.17,West,261,0.0,0.0,85,0.00,,---,0.00,VWS V14.00,2013-03-13 11:15:00,
2013-03-13 06:20:00,12.3,8.7,30.17,West,261,0.0,0.0,85,0.00,,---,0.00,VWS V14.00,2013-03-13 11:20:00,
2013-03-13 06:25:00,12.3,8.7,30.17,West,261,1.0,1.0,85,0.00,,---,0.00,VWS V14.00,2013-03-13 11:25:00,
2013-03-13 06:30:00,12.4,8.8,30.17,West,261,0.0,1.0,85,0.00,,---,0.00,VWS V14.00,2013-03-13 11:30:00,
2013-03-13 06:35:00,12.3,8.7,30.17,West,261,0.0,0.0,85,0.00,,---,0.00,VWS V14.00,2013-03-13 11:35:00,
2013-03-13 06:40:00,12.3,8.4,30.18,SW,229,0.0,0.0,84,0.00,,---,0.00,VWS V14.00,2013-03-13 11:40:00,
2013-03-13 06:45:00,12.2,8.6,30.17,SW,229,0.0,0.0,85,0.00,,---,0.00,VWS V14.00,2013-03-13 11:45:00,
2013-03-13 06:50:00,12.2,8.3,30.18,West,277,0.0,2.0,84,0.00,,---,0.00,VWS V14.00,2013-03-13 11:50:00,
2013-03-13 06:55:00,12.1,8.5,30.18,ENE,63,0.0,3.0,85,0.00,,---,0.00,VWS V14.00,2013-03-13 11:55:00,
2013-03-13 07:00:00,12.1,8.2,30.18,NNE,13,0.0,3.0,84,0.00,,---,0.00,VWS V14.00,2013-03-13 12:00:00,
2013-03-13 07:05:00,12.0,8.1,30.18,NNE,13,0.0,0.0,84,0.00,,---,0.00,VWS V14.00,2013-03-13 12:05:00,
2013-03-13 07:10:00,11.9,8.0,30.18,SW,233,0.0,2.0,84,0.00,,---,0.00,VWS V14.00,2013-03-13 12:10:00,
2013-03-13 07:15:00,11.8,8.2,30.19,SW,236,0.0,2.0,85,0.00,,---,0.00,VWS V14.00,2013-03-13 12:15:00,
2013-03-13 07:20:00,11.8,8.2,30.19,SW,236,0.0,0.0,85,0.00,,---,0.00,VWS V14.00,2013-03-13 12:20:00,
2013-03-13 07:25:00,11.7,8.1,30.19,SW,236,0.0,0.0,85,0.00,,---,0.00,VWS V14.00,2013-03-13 12:25:00,
2013-03-13 07:30:00,11.5,7.9,30.19,SW,224,0.0,0.0,85,0.00,,---,0.00,VWS V14.00,2013-03-13 12:30:00,
2013-03-13 07:35:00,11.4,7.8,30.19,SW,224,0.0,0.0,85,0.00,,---,0.00,VWS V14.00,2013-03-13 12:35:00,
2013-03-13 07:40:00,11.2,7.6,30.20,SW,224,0.0,0.0,85,0.00,,---,0.00,VWS V14.00,2013-03-13 12:40:00,
2013-03-13 07:45:00,11.0,7.4,30.20,SW,224,0.0,1.0,85,0.00,,---,0.00,VWS V14.00,2013-03-13 12:45:00,
2013-03-13 07:50:00,11.0,7.4,30.20,SW,224,0.0,0.0,85,0.00,,---,0.00,VWS V14.00,2013-03-13 12:50:00,
2013-03-13 07:55:00,11.0,7.6,30.21,SW,224,0.0,0.0,86,0.00,,---,0.00,VWS V14.00,2013-03-13 12:55:00,
2013-03-13 08:00:00,11.0,7.6,30.21,South,188,0.0,2.0,86,0.00,,---,0.00,VWS V14.00,2013-03-13 13:00:00,
2013-03-13 08:05:00,11.1,7.7,30.21,SW,232,0.0,1.0,86,0.00,,---,0.00,VWS V14.00,2013-03-13 13:05:00,
2013-03-13 08:10:00,11.2,7.8,30.21,SW,236,0.0,1.0,86,0.00,,---,0.00,VWS V14.00,2013-03-13 13:10:00,
2013-03-13 08:15:00,11.3,7.9,30.22,West,261,0.0,1.0,86,0.00,,---,0.00,VWS V14.00,2013-03-13 13:15:00,
2013-03-13 08:20:00,11.3,7.7,30.22,WSW,238,0.0,0.0,85,0.00,,---,0.00,VWS V14.00,2013-03-13 13:20:00,
2013-03-13 08:25:00,11.4,7.8,30.22,WSW,238,0.0,2.0,85,0.00,,---,0.00,VWS V14.00,2013-03-13 13:25:00,
2013-03-13 08:30:00,11.6,8.0,30.22,WSW,238,0.0,2.0,85,0.00,,---,0.00,VWS V14.00,2013-03-13 13:30:00,
2013-03-13 08:35:00,11.7,8.1,30.23,WSW,256,0.0,2.0,85,0.00,,---,0.00,VWS V14.00,2013-03-13 13:35:00,
2013-03-13 08:40:00,12.0,8.4,30.23,West,267,0.0,3.0,85,0.00,,---,0.00,VWS V14.00,2013-03-13 13:40:00,
2013-03-13 08:46:00,12.2,8.6,30.23,West,272,0.0,3.0,85,0.00,,---,0.00,VWS V14.00,2013-03-13 13:46:00,
2013-03-13 08:51:00,12.5,8.6,30.23,West,268,2.0,3.0,84,0.00,,---,0.00,VWS V14.00,2013-03-13 13:51:00,
2013-03-13 08:56:00,13.0,9.1,30.23,SW,233,0.0,3.0,84,0.00,,---,0.00,VWS V14.00,2013-03-13 13:56:00,
2013-03-13 09:01:00,13.4,9.5,30.24,West,268,1.0,3.0,84,0.00,,---,0.00,VWS V14.00,2013-03-13 14:01:00,
2013-03-13 09:06:00,13.9,9.7,30.23,WSW,246,0.0,5.0,83,0.00,,---,0.00,VWS V14.00,2013-03-13 14:06:00,
2013-03-13 09:11:00,14.2,10.0,30.24,West,275,0.0,5.0,83,0.00,,---,0.00,VWS V14.00,2013-03-13 14:11:00,
2013-03-13 09:16:00,14.7,10.2,30.24,West,273,0.0,5.0,82,0.00,,---,0.00,VWS V14.00,2013-03-13 14:16:00,
2013-03-13 09:21:00,14.9,10.4,30.24,West,272,0.0,2.0,82,0.00,,---,0.00,VWS V14.00,2013-03-13 14:21:00,
2013-03-13 09:26:00,15.4,10.6,30.25,WSW,244,3.0,5.0,81,0.00,,---,0.00,VWS V14.00,2013-03-13 14:26:00,
2013-03-13 09:31:00,15.9,10.8,30.25,West,268,0.0,5.0,80,0.00,,---,0.00,VWS V14.00,2013-03-13 14:31:00,
2013-03-13 09:36:00,16.2,10.8,30.25,West,271,0.0,6.0,79,0.00,,---,0.00,VWS V14.00,2013-03-13 14:36:00,
2013-03-13 09:42:00,16.6,11.2,30.25,NNW,340,3.0,10.0,79,0.00,,---,0.00,VWS V14.00,2013-03-13 14:42:00,
2013-03-13 09:47:00,17.0,11.3,30.25,NNW,328,0.0,10.0,78,0.00,,---,0.00,VWS V14.00,2013-03-13 14:47:00,
2013-03-13 09:52:00,17.3,11.3,30.26,WNW,293,4.0,5.0,77,0.00,,---,0.00,VWS V14.00,2013-03-13 14:52:00,
2013-03-13 09:57:00,17.6,11.9,30.26,SSW,205,0.0,5.0,78,0.00,,---,0.00,VWS V14.00,2013-03-13 14:57:00,
2013-03-13 10:02:00,17.9,11.9,30.26,NW,308,0.0,9.0,77,0.00,,---,0.00,VWS V14.00,2013-03-13 15:02:00,
2013-03-13 10:07:00,18.1,11.8,30.27,East,85,0.0,5.0,76,0.00,,---,0.00,VWS V14.00,2013-03-13 15:07:00,
2013-03-13 10:12:00,18.2,11.9,30.27,NNW,340,2.0,9.0,76,0.00,,---,0.00,VWS V14.00,2013-03-13 15:12:00,
2013-03-13 10:17:00,18.3,12.0,30.27,WSW,244,2.0,9.0,76,0.00,,---,0.00,VWS V14.00,2013-03-13 15:17:00,
2013-03-13 10:22:00,18.6,12.3,30.27,SW,227,5.0,6.0,76,0.00,,---,0.00,VWS V14.00,2013-03-13 15:22:00,
2013-03-13 10:27:00,18.8,12.5,30.27,West,262,0.0,6.0,76,0.00,,---,0.00,VWS V14.00,2013-03-13 15:27:00,
2013-03-13 10:32:00,19.0,12.1,30.27,West,262,4.0,8.0,74,0.00,,---,0.00,VWS V14.00,2013-03-13 15:32:00,
2013-03-13 10:37:00,19.1,12.5,30.27,SSE,148,2.0,3.0,75,0.00,,---,0.00,VWS V14.00,2013-03-13 15:37:00,
2013-03-13 10:42:00,19.3,12.4,30.27,SW,227,4.0,7.0,74,0.00,,---,0.00,VWS V14.00,2013-03-13 15:42:00,
2013-03-13 10:47:00,19.5,12.9,30.28,SW,215,0.0,7.0,75,0.00,,---,0.00,VWS V14.00,2013-03-13 15:47:00,
2013-03-13 10:52:00,19.8,12.9,30.27,WNW,286,5.0,5.0,74,0.00,,---,0.00,VWS V14.00,2013-03-13 15:52:00,
2013-03-13 10:58:00,20.2,12.6,30.28,SW,232,3.0,9.0,72,0.00,,---,0.00,VWS V14.00,2013-03-13 15:58:00,
2013-03-13 11:03:00,20.6,12.1,30.28,NW,314,0.0,12.0,69,0.00,,---,0.00,VWS V14.00,2013-03-13 16:03:00,
2013-03-13 11:08:00,20.8,11.6,30.28,ENE,70,3.0,6.0,67,0.00,,---,0.00,VWS V14.00,2013-03-13 16:08:00,
2013-03-13 11:12:00,21.0,12.4,30.28,West,272,2.0,6.0,69,0.00,,---,0.00,VWS V14.00,2013-03-13 16:12:00,
2013-03-13 11:17:00,21.5,12.9,30.28,NNE,30,7.0,10.0,69,0.00,,---,0.00,VWS V14.00,2013-03-13 16:17:00,
2013-03-13 11:22:00,21.8,12.9,30.28,West,270,1.0,4.0,68,0.00,,---,0.00,VWS V14.00,2013-03-13 16:22:00,
2013-03-13 11:27:00,22.4,14.1,30.28,West,271,0.0,4.0,70,0.00,,---,0.00,VWS V14.00,2013-03-13 16:27:00,
2013-03-13 11:33:00,23.1,14.5,30.28,SW,220,7.0,7.0,69,0.00,,---,0.00,VWS V14.00,2013-03-13 16:33:00,
2013-03-13 11:38:00,23.6,14.3,30.28,North,355,3.0,7.0,67,0.00,,---,0.00,VWS V14.00,2013-03-13 16:38:00,
2013-03-13 11:42:00,23.9,13.1,30.28,WNW,287,1.0,7.0,63,0.00,,---,0.00,VWS V14.00,2013-03-13 16:42:00,
2013-03-13 11:47:00,23.9,12.4,30.28,WSW,248,7.0,9.0,61,0.00,,---,0.00,VWS V14.00,2013-03-13 16:47:00,
2013-03-13 11:53:00,23.8,12.7,30.28,NW,325,5.0,13.0,62,0.00,,---,0.00,VWS V14.00,2013-03-13 16:53:00,
2013-03-13 11:57:00,24.0,12.9,30.28,WSW,254,6.0,13.0,62,0.00,,---,0.00,VWS V14.00,2013-03-13 16:57:00,
2013-03-13 12:03:00,24.3,12.8,30.28,NW,307,5.0,13.0,61,0.00,,---,0.00,VWS V14.00,2013-03-13 17:03:00,
2013-03-13 12:08:00,24.6,12.7,30.28,WSW,258,3.0,7.0,60,0.00,,---,0.00,VWS V14.00,2013-03-13 17:08:00,
2013-03-13 12:12:00,25.0,13.8,30.28,North,355,2.0,10.0,62,0.00,,---,0.00,VWS V14.00,2013-03-13 17:12:00,
2013-03-13 12:17:00,25.4,14.2,30.28,West,269,0.0,10.0,62,0.00,,---,0.00,VWS V14.00,2013-03-13 17:17:00,
2013-03-13 12:22:00,25.7,13.8,30.28,West,266,2.0,10.0,60,0.00,,---,0.00,VWS V14.00,2013-03-13 17:22:00,
2013-03-13 12:27:00,25.8,13.9,30.28,WNW,296,2.0,11.0,60,0.00,,---,0.00,VWS V14.00,2013-03-13 17:27:00,
2013-03-13 12:32:00,25.8,13.9,30.28,NNE,18,4.0,11.0,60,0.00,,---,0.00,VWS V14.00,2013-03-13 17:32:00,
2013-03-13 12:37:00,26.1,13.8,30.28,NW,313,5.0,6.0,59,0.00,,---,0.00,VWS V14.00,2013-03-13 17:37:00,
2013-03-13 12:42:00,26.1,12.6,30.28,WSW,251,3.0,11.0,56,0.00,,---,0.00,VWS V14.00,2013-03-13 17:42:00,
2013-03-13 12:47:00,25.8,12.7,30.28,SW,215,3.0,12.0,57,0.00,,---,0.00,VWS V14.00,2013-03-13 17:47:00,
2013-03-13 12:52:00,26.2,13.4,30.28,West,281,2.0,9.0,58,0.00,,---,0.00,VWS V14.00,2013-03-13 17:52:00,
2013-03-13 12:57:00,26.5,12.5,30.28,WSW,248,6.0,9.0,55,0.00,,---,0.00,VWS V14.00,2013-03-13 17:57:00,
2013-03-13 13:02:00,26.6,13.4,30.29,ESE,106,1.0,9.0,57,0.00,,---,0.00,VWS V14.00,2013-03-13 18:02:00,
2013-03-13 13:07:00,26.7,12.7,30.29,NNW,346,3.0,6.0,55,0.00,,---,0.00,VWS V14.00,2013-03-13 18:07:00,
2013-03-13 13:12:00,26.7,12.3,30.28,North,355,2.0,9.0,54,0.00,,---,0.00,VWS V14.00,2013-03-13 18:12:00,
2013-03-13 13:17:00,26.7,11.9,30.29,SSW,205,2.0,9.0,53,0.00,,---,0.00,VWS V14.00,2013-03-13 18:17:00,
2013-03-13 13:23:00,26.9,12.1,30.28,NW,323,1.0,5.0,53,0.00,,---,0.00,VWS V14.00,2013-03-13 18:23:00,
2013-03-13 13:27:00,27.2,13.2,30.28,WSW,250,2.0,10.0,55,0.00,,---,0.00,VWS V14.00,2013-03-13 18:27:00,
2013-03-13 13:32:00,27.6,14.0,30.28,WNW,300,2.0,10.0,56,0.00,,---,0.00,VWS V14.00,2013-03-13 18:32:00,
2013-03-13 13:37:00,27.8,12.5,30.28,WNW,300,3.0,7.0,52,0.00,,---,0.00,VWS V14.00,2013-03-13 18:37:00,
2013-03-13 13:43:00,27.9,13.4,30.28,SSW,202,3.0,7.0,54,0.00,,---,0.00,VWS V14.00,2013-03-13 18:43:00,
2013-03-13 13:48:00,28.1,13.2,30.28,NNW,328,0.0,7.0,53,0.00,,---,0.00,VWS V14.00,2013-03-13 18:48:00,
2013-03-13 13:53:00,28.3,12.9,30.28,WNW,302,3.0,4.0,52,0.00,,---,0.00,VWS V14.00,2013-03-13 18:53:00,
2013-03-13 13:58:00,28.5,13.1,30.28,WSW,243,2.0,4.0,52,0.00,,---,0.00,VWS V14.00,2013-03-13 18:58:00,
2013-03-13 14:03:00,28.4,13.0,30.28,NW,311,5.0,11.0,52,0.00,,---,0.00,VWS V14.00,2013-03-13 19:03:00,
2013-03-13 14:08:00,28.3,13.4,30.28,NW,321,3.0,7.0,53,0.00,,---,0.00,VWS V14.00,2013-03-13 19:08:00,
2013-03-13 14:13:00,28.3,12.9,30.28,West,276,1.0,7.0,52,0.00,,---,0.00,VWS V14.00,2013-03-13 19:13:00,
2013-03-13 14:18:00,28.4,12.6,30.28,SW,222,8.0,9.0,51,0.00,,---,0.00,VWS V14.00,2013-03-13 19:18:00,
2013-03-13 14:23:00,28.4,13.5,30.28,NW,321,1.0,6.0,53,0.00,,---,0.00,VWS V14.00,2013-03-13 19:23:00,
2013-03-13 14:28:00,28.3,13.8,30.28,NW,315,1.0,9.0,54,0.00,,---,0.00,VWS V14.00,2013-03-13 19:28:00,
2013-03-13 14:33:00,28.2,12.4,30.28,SW,225,4.0,9.0,51,0.00,,---,0.00,VWS V14.00,2013-03-13 19:33:00,
2013-03-13 14:38:00,28.0,12.7,30.28,West,264,1.0,12.0,52,0.00,,---,0.00,VWS V14.00,2013-03-13 19:38:00,
2013-03-13 14:43:00,28.2,13.3,30.28,WNW,300,2.0,12.0,53,0.00,,---,0.00,VWS V14.00,2013-03-13 19:43:00,
2013-03-13 14:48:00,28.4,12.6,30.28,NW,313,3.0,12.0,51,0.00,,---,0.00,VWS V14.00,2013-03-13 19:48:00,
2013-03-13 14:53:00,28.5,12.2,30.28,West,265,3.0,5.0,50,0.00,,---,0.00,VWS V14.00,2013-03-13 19:53:00,
2013-03-13 14:58:00,28.5,12.7,30.28,West,269,3.0,7.0,51,0.00,,---,0.00,VWS V14.00,2013-03-13 19:58:00,
2013-03-13 15:03:00,28.7,13.8,30.28,NNW,327,1.0,7.0,53,0.00,,---,0.00,VWS V14.00,2013-03-13 20:03:00,
2013-03-13 15:08:00,28.9,13.9,30.28,WSW,246,1.0,6.0,53,0.00,,---,0.00,VWS V14.00,2013-03-13 20:08:00,
2013-03-13 15:13:00,29.1,14.1,30.28,West,275,0.0,9.0,53,0.00,,---,0.00,VWS V14.00,2013-03-13 20:13:00,
2013-03-13 15:18:00,29.2,13.8,30.28,SW,231,4.0,9.0,52,0.00,,---,0.00,VWS V14.00,2013-03-13 20:18:00,
2013-03-13 15:23:00,29.1,13.7,30.28,WNW,285,1.0,9.0,52,0.00,,---,0.00,VWS V14.00,2013-03-13 20:23:00,
2013-03-13 15:28:00,29.1,14.1,30.28,WSW,243,2.0,9.0,53,0.00,,---,0.00,VWS V14.00,2013-03-13 20:28:00,
2013-03-13 15:33:00,29.3,14.7,30.28,WSW,258,1.0,9.0,54,0.00,,---,0.00,VWS V14.00,2013-03-13 20:33:00,
2013-03-13 15:38:00,29.6,15.0,30.28,West,269,9.0,9.0,54,0.00,,---,0.01,VWS V14.00,2013-03-13 20:38:00,
2013-03-13 15:43:00,29.5,14.1,30.28,West,265,2.0,9.0,52,0.00,,---,0.01,VWS V14.00,2013-03-13 20:43:00,
2013-03-13 15:48:00,29.6,13.3,30.28,SW,223,3.0,9.0,50,0.00,,---,0.01,VWS V14.00,2013-03-13 20:48:00,
2013-03-13 15:53:00,29.4,13.1,30.28,SSW,201,5.0,11.0,50,0.00,,---,0.01,VWS V14.00,2013-03-13 20:53:00,
2013-03-13 15:58:00,29.2,13.3,30.28,West,260,2.0,11.0,51,0.00,,---,0.01,VWS V14.00,2013-03-13 20:58:00,
2013-03-13 16:03:00,29.3,13.9,30.28,West,275,1.0,11.0,52,0.00,,---,0.01,VWS V14.00,2013-03-13 21:03:00,
2013-03-13 16:08:00,29.7,13.4,30.28,West,268,2.0,5.0,50,0.00,,---,0.01,VWS V14.00,2013-03-13 21:08:00,
2013-03-13 16:13:00,29.7,13.4,30.28,WSW,255,2.0,11.0,50,0.00,,---,0.01,VWS V14.00,2013-03-13 21:13:00,
2013-03-13 16:18:00,29.7,13.4,30.28,SW,234,2.0,11.0,50,0.00,,---,0.01,VWS V14.00,2013-03-13 21:18:00,
2013-03-13 16:23:00,29.8,13.4,30.28,NNE,30,0.0,11.0,50,0.00,,---,0.01,VWS V14.00,2013-03-13 21:23:00,
2013-03-13 16:28:00,29.6,11.4,30.29,SSW,209,5.0,11.0,46,0.00,,---,0.01,VWS V14.00,2013-03-13 21:28:00,
2013-03-13 16:33:00,29.4,11.7,30.29,SSW,200,2.0,11.0,47,0.00,,---,0.01,VWS V14.00,2013-03-13 21:33:00,
2013-03-13 16:38:00,29.5,11.3,30.29,West,263,2.0,6.0,46,0.00,,---,0.01,VWS V14.00,2013-03-13 21:38:00,
2013-03-13 16:43:00,29.6,12.3,30.29,SW,221,2.0,7.0,48,0.00,,---,0.01,VWS V14.00,2013-03-13 21:43:00,
2013-03-13 16:48:00,29.5,12.7,30.29,North,351,2.0,7.0,49,0.00,,---,0.01,VWS V14.00,2013-03-13 21:48:00,
2013-03-13 16:53:00,29.6,11.9,30.29,WSW,245,4.0,5.0,47,0.00,,---,0.01,VWS V14.00,2013-03-13 21:53:00,
2013-03-13 16:58:00,29.2,10.5,30.29,WNW,290,1.0,7.0,45,0.00,,---,0.01,VWS V14.00,2013-03-13 21:58:00,
2013-03-13 17:03:00,29.0,10.8,30.29,WSW,255,1.0,7.0,46,0.00,,---,0.01,VWS V14.00,2013-03-13 22:03:00,
2013-03-13 17:08:00,28.9,10.7,30.29,WSW,248,2.0,6.0,46,0.00,,---,0.01,VWS V14.00,2013-03-13 22:08:00,
2013-03-13 17:13:00,28.9,9.7,30.29,WSW,242,3.0,6.0,44,0.00,,---,0.01,VWS V14.00,2013-03-13 22:13:00,
2013-03-13 17:18:00,28.8,9.1,30.29,NE,49,2.0,10.0,43,0.00,,---,0.01,VWS V14.00,2013-03-13 22:18:00,
2013-03-13 17:23:00,28.6,7.9,30.29,West,263,2.0,4.0,41,0.00,,---,0.01,VWS V14.00,2013-03-13 22:23:00,
2013-03-13 17:28:00,28.5,7.3,30.29,WSW,239,1.0,6.0,40,0.00,,---,0.01,VWS V14.00,2013-03-13 22:28:00,
2013-03-13 17:33:00,28.3,8.7,30.28,WNW,284,0.0,6.0,43,0.00,,---,0.01,VWS V14.00,2013-03-13 22:33:00,
2013-03-13 17:38:00,28.1,8.0,30.28,SW,234,3.0,5.0,42,0.00,,---,0.01,VWS V14.00,2013-03-13 22:38:00,
2013-03-13 17:43:00,27.8,7.7,30.29,SW,236,3.0,7.0,42,0.00,,---,0.01,VWS V14.00,2013-03-13 22:43:00,
2013-03-13 17:48:00,27.5,7.9,30.28,West,263,3.0,7.0,43,0.00,,---,0.01,VWS V14.00,2013-03-13 22:48:00,
2013-03-13 17:53:00,27.4,8.9,30.28,West,268,0.0,5.0,45,0.00,,---,0.01,VWS V14.00,2013-03-13 22:53:00,
2013-03-13 17:58:00,27.2,8.7,30.28,West,271,1.0,5.0,45,0.00,,---,0.01,VWS V14.00,2013-03-13 22:58:00,
2013-03-13 18:03:00,27.0,8.5,30.28,SE,126,1.0,6.0,45,0.00,,---,0.01,VWS V14.00,2013-03-13 23:03:00,
2013-03-13 18:08:00,26.9,8.9,30.28,SW,229,0.0,4.0,46,0.00,,---,0.01,VWS V14.00,2013-03-13 23:08:00,
2013-03-13 18:13:00,26.7,9.7,30.28,West,278,0.0,6.0,48,0.00,,---,0.01,VWS V14.00,2013-03-13 23:13:00,
2013-03-13 18:18:00,26.5,9.0,30.28,West,278,0.0,6.0,47,0.00,,---,0.01,VWS V14.00,2013-03-13 23:18:00,
2013-03-13 18:23:00,26.4,9.4,30.29,West,278,0.0,4.0,48,0.00,,---,0.01,VWS V14.00,2013-03-13 23:23:00,
2013-03-13 18:28:00,26.1,10.0,30.29,WNW,292,0.0,4.0,50,0.00,,---,0.01,VWS V14.00,2013-03-13 23:28:00,
2013-03-13 18:33:00,25.9,10.3,30.29,West,271,0.0,4.0,51,0.00,,---,0.01,VWS V14.00,2013-03-13 23:33:00,
2013-03-13 18:38:00,25.6,10.0,30.29,SW,225,1.0,3.0,51,0.00,,---,0.01,VWS V14.00,2013-03-13 23:38:00,
2013-03-13 18:43:00,25.4,10.7,30.29,West,271,0.0,3.0,53,0.00,,---,0.01,VWS V14.00,2013-03-13 23:43:00,
2013-03-13 18:48:00,25.1,10.0,30.29,West,277,0.0,3.0,52,0.00,,---,0.01,VWS V14.00,2013-03-13 23:48:00,
2013-03-13 18:53:00,24.9,10.2,30.29,West,276,0.0,2.0,53,0.00,,---,0.01,VWS V14.00,2013-03-13 23:53:00,
2013-03-13 18:58:00,24.6,10.8,30.29,West,277,0.0,2.0,55,0.00,,---,0.01,VWS V14.00,2013-03-13 23:58:00,
2013-03-13 19:03:00,24.3,12.4,30.29,West,277,0.0,2.0,60,0.00,,---,0.01,VWS V14.00,2013-03-14 00:03:00,
2013-03-13 19:08:00,23.8,15.5,30.29,West,277,0.0,0.0,70,0.00,,---,0.01,VWS V14.00,2013-03-14 00:08:00,
2013-03-13 19:13:00,23.2,15.5,30.29,West,277,0.0,0.0,72,0.00,,---,0.01,VWS V14.00,2013-03-14 00:13:00,
2013-03-13 19:18:00,22.6,15.3,30.28,West,277,0.0,0.0,73,0.00,,---,0.01,VWS V14.00,2013-03-14 00:18:00,
2013-03-13 19:23:00,22.0,15.3,30.28,West,277,0.0,0.0,75,0.00,,---,0.01,VWS V14.00,2013-03-14 00:23:00,
2013-03-13 19:28:00,21.4,15.0,30.28,West,277,0.0,0.0,76,0.00,,---,0.01,VWS V14.00,2013-03-14 00:28:00,
2013-03-13 19:33:00,21.0,14.6,30.28,West,277,0.0,0.0,76,0.00,,---,0.01,VWS V14.00,2013-03-14 00:33:00,
2013-03-13 19:38:00,20.6,14.6,30.28,West,277,0.0,0.0,77,0.00,,---,0.01,VWS V14.00,2013-03-14 00:38:00,
2013-03-13 19:43:00,20.1,14.1,30.28,West,277,0.0,0.0,77,0.00,,---,0.01,VWS V14.00,2013-03-14 00:43:00,
2013-03-13 19:48:00,19.7,14.0,30.28,West,277,0.0,0.0,78,0.00,,---,0.01,VWS V14.00,2013-03-14 00:48:00,
2013-03-13 19:53:00,19.2,13.5,30.28,West,277,0.0,0.0,78,0.00,,---,0.01,VWS V14.00,2013-03-14 00:53:00,
2013-03-13 19:58:00,18.7,13.0,30.28,West,277,0.0,0.0,78,0.00,,---,0.01,VWS V14.00,2013-03-14 00:58:00,
2013-03-13 20:03:00,18.2,12.5,30.28,West,277,0.0,0.0,78,0.00,,---,0.01,VWS V14.00,2013-03-14 01:03:00,
2013-03-13 20:08:00,17.8,12.1,30.28,West,277,0.0,0.0,78,0.00,,---,0.01,VWS V14.00,2013-03-14 01:08:00,
2013-03-13 20:13:00,17.5,12.1,30.28,West,277,0.0,0.0,79,0.00,,---,0.01,VWS V14.00,2013-03-14 01:13:00,
2013-03-13 20:18:00,17.2,12.1,30.28,West,277,0.0,0.0,80,0.00,,---,0.01,VWS V14.00,2013-03-14 01:18:00,
2013-03-13 20:23:00,16.9,11.8,30.28,West,277,0.0,0.0,80,0.00,,---,0.01,VWS V14.00,2013-03-14 01:23:00,
2013-03-13 20:28:00,16.5,11.1,30.28,West,277,0.0,0.0,79,0.00,,---,0.01,VWS V14.00,2013-03-14 01:28:00,
2013-03-13 20:33:00,16.1,10.8,30.28,West,277,0.0,0.0,79,0.00,,---,0.01,VWS V14.00,2013-03-14 01:33:00,
2013-03-13 20:38:00,15.7,10.4,30.28,West,277,0.0,0.0,79,0.00,,---,0.01,VWS V14.00,2013-03-14 01:38:00,
2013-03-13 20:43:00,15.3,9.7,30.28,West,277,0.0,0.0,78,0.00,,---,0.01,VWS V14.00,2013-03-14 01:43:00,
2013-03-13 20:48:00,15.0,9.7,30.28,West,277,0.0,0.0,79,0.00,,---,0.01,VWS V14.00,2013-03-14 01:48:00,
2013-03-13 20:53:00,14.7,9.4,30.28,West,277,0.0,0.0,79,0.00,,---,0.01,VWS V14.00,2013-03-14 01:53:00,
2013-03-13 20:58:00,14.4,9.1,30.27,West,277,0.0,0.0,79,0.00,,---,0.01,VWS V14.00,2013-03-14 01:58:00,
2013-03-13 21:03:00,14.1,9.1,30.27,West,277,0.0,0.0,80,0.00,,---,0.01,VWS V14.00,2013-03-14 02:03:00,
2013-03-13 21:08:00,13.9,8.9,30.27,West,277,0.0,0.0,80,0.00,,---,0.01,VWS V14.00,2013-03-14 02:08:00,
2013-03-13 21:13:00,13.6,8.6,30.27,West,277,0.0,0.0,80,0.00,,---,0.01,VWS V14.00,2013-03-14 02:13:00,
2013-03-13 21:18:00,13.4,8.4,30.28,West,277,0.0,0.0,80,0.00,,---,0.01,VWS V14.00,2013-03-14 02:18:00,
2013-03-13 21:23:00,13.1,8.1,30.28,West,277,0.0,0.0,80,0.00,,---,0.01,VWS V14.00,2013-03-14 02:23:00,
2013-03-13 21:28:00,12.8,7.8,30.28,West,277,0.0,0.0,80,0.00,,---,0.01,VWS V14.00,2013-03-14 02:28:00,
2013-03-13 21:33:00,12.5,7.5,30.28,West,277,0.0,0.0,80,0.00,,---,0.01,VWS V14.00,2013-03-14 02:33:00,
2013-03-13 21:38:00,12.3,7.6,30.28,West,277,0.0,0.0,81,0.00,,---,0.01,VWS V14.00,2013-03-14 02:38:00,
2013-03-13 21:43:00,12.1,7.1,30.28,West,277,0.0,0.0,80,0.00,,---,0.01,VWS V14.00,2013-03-14 02:43:00,
2013-03-13 21:48:00,11.8,7.1,30.29,West,277,0.0,0.0,81,0.00,,---,0.01,VWS V14.00,2013-03-14 02:48:00,
2013-03-13 21:53:00,11.4,6.7,30.28,West,277,0.0,0.0,81,0.00,,---,0.01,VWS V14.00,2013-03-14 02:53:00,
2013-03-13 21:58:00,11.1,6.4,30.28,West,277,0.0,0.0,81,0.00,,---,0.01,VWS V14.00,2013-03-14 02:58:00,
2013-03-13 22:03:00,10.8,6.4,30.29,West,277,0.0,0.0,82,0.00,,---,0.01,VWS V14.00,2013-03-14 03:03:00,
2013-03-13 22:08:00,10.5,6.4,30.29,West,277,0.0,0.0,83,0.00,,---,0.01,VWS V14.00,2013-03-14 03:08:00,
2013-03-13 22:13:00,10.3,6.2,30.29,West,277,0.0,0.0,83,0.00,,---,0.01,VWS V14.00,2013-03-14 03:13:00,
2013-03-13 22:18:00,10.1,6.2,30.29,West,277,0.0,0.0,84,0.00,,---,0.01,VWS V14.00,2013-03-14 03:18:00,
2013-03-13 22:23:00,9.9,6.0,30.28,West,277,0.0,0.0,84,0.00,,---,0.01,VWS V14.00,2013-03-14 03:23:00,
2013-03-13 22:28:00,9.7,5.8,30.28,West,277,0.0,0.0,84,0.00,,---,0.01,VWS V14.00,2013-03-14 03:28:00,
2013-03-13 22:33:00,9.5,5.9,30.28,West,277,0.0,0.0,85,0.00,,---,0.01,VWS V14.00,2013-03-14 03:33:00,
2013-03-13 22:38:00,9.4,5.8,30.28,West,277,0.0,0.0,85,0.00,,---,0.01,VWS V14.00,2013-03-14 03:38:00,
2013-03-13 22:43:00,9.2,5.6,30.28,West,277,0.0,0.0,85,0.00,,---,0.01,VWS V14.00,2013-03-14 03:43:00,
2013-03-13 22:48:00,8.9,5.3,30.28,West,277,0.0,0.0,85,0.00,,---,0.01,VWS V14.00,2013-03-14 03:48:00,
2013-03-13 22:53:00,8.7,5.4,30.28,West,277,0.0,0.0,86,0.00,,---,0.01,VWS V14.00,2013-03-14 03:53:00,
2013-03-13 22:58:00,8.6,5.3,30.28,West,277,0.0,0.0,86,0.00,,---,0.01,VWS V14.00,2013-03-14 03:58:00,
2013-03-13 23:00:00,8.5,5.4,30.28,West,277,0.0,0.0,87,0.00,,---,0.01,VWS V14.00,2013-03-14 04:00:00,
2013-03-13 23:05:00,8.4,5.3,30.28,West,277,0.0,0.0,87,0.00,,---,0.01,VWS V14.00,2013-03-14 04:05:00,
2013-03-13 23:10:00,8.2,4.9,30.28,West,277,0.0,0.0,86,0.00,,---,0.01,VWS V14.00,2013-03-14 04:10:00,
2013-03-13 23:15:00,8.0,4.7,30.28,West,277,0.0,0.0,86,0.00,,---,0.01,VWS V14.00,2013-03-14 04:15:00,
2013-03-13 23:20:00,7.8,4.7,30.27,West,277,0.0,0.0,87,0.00,,---,0.01,VWS V14.00,2013-03-14 04:20:00,
2013-03-13 23:25:00,7.8,4.7,30.28,West,277,0.0,0.0,87,0.00,,---,0.01,VWS V14.00,2013-03-14 04:25:00,
2013-03-13 23:30:00,7.7,4.7,30.28,West,277,0.0,0.0,87,0.00,,---,0.01,VWS V14.00,2013-03-14 04:30:00,
2013-03-13 23:35:00,7.5,4.4,30.28,West,277,0.0,0.0,87,0.00,,---,0.01,VWS V14.00,2013-03-14 04:35:00,
2013-03-13 23:40:00,7.4,4.3,30.28,West,277,0.0,0.0,87,0.00,,---,0.01,VWS V14.00,2013-03-14 04:40:00,
2013-03-13 23:45:00,7.2,4.4,30.28,West,277,0.0,0.0,88,0.00,,---,0.01,VWS V14.00,2013-03-14 04:45:00,
2013-03-13 23:50:00,7.1,4.3,30.29,West,277,0.0,0.0,88,0.00,,---,0.01,VWS V14.00,2013-03-14 04:50:00,
2013-03-13 23:55:00,6.9,4.1,30.29,West,277,0.0,0.0,88,0.00,,---,0.01,VWS V14.00,2013-03-14 04:55:00,